Regional Weather Roundup
Issued by NWS

Home | Current Version | Previous Version | Graphics & Text | Print | Product List | Glossary On
Versions: 1 2 3 4 5 6 7 8 9 10 11 12 13 14 15 16 17 18 19 20 21 22 23 24 25 26 27 28 29 30 31 32 33 34 35 36 37 38 39 40 41 42 43 44 45 46 47 48 49 50
000
ASUS43 KTOP 031459
RWRKS

WEATHER ROUNDUP FOR KANSAS
NATIONAL WEATHER SERVICE GOODLAND KS
900 AM CST TUE MAR 03 2015

NOTE:  "FAIR" INDICATES FEW OR NO CLOUDS BELOW 12,000 FEET WITH NO
SIGNIFICANT WEATHER AND/OR OBSTRUCTIONS TO VISIBILITY.

KSZ001>006-013>018-027>032-041>047-031600-
NORTHWEST KANSAS

CITY           SKY/WX    TMP DP  RH WIND       PRES   REMARKS
GOODLAND       CLOUDY    32  29  88 N17G23    29.82R WCI  21
HAYS           CLOUDY    36  23  60 NW21      29.80R WCI  24
HILL CITY      PTSUNNY   33  26  75 NW15G21   29.82R WCI  23
RUSSELL        CLOUDY    37  30  75 NW24      29.77R WCI  26
$$

KSZ061>065-074>080-084>089-031600-
SOUTHWEST KANSAS

CITY           SKY/WX    TMP DP  RH WIND       PRES   REMARKS
DODGE CITY     CLOUDY    42  33  70 W14G23    29.75R
ELKHART          N/A     49  27  42 W18         N/A
GARDEN CITY    CLOUDY    39  31  72 N13       29.76R WCI  31
GREAT BEND     CLOUDY    41  32  70 NW14      29.77R
LIBERAL        CLOUDY    39  34  81 SW10      29.79R WCI  32
$$

KSZ066>073-081>083-090>101-031600-
SOUTHEAST KANSAS

CITY           SKY/WX    TMP DP  RH WIND       PRES   REMARKS
CHANUTE        CLOUDY    40  40 100 SW20G30   29.81R FOG     WCI  30
COFFEYVILLE    CLOUDY    41  39  93 S17G28    29.86R
HUTCHINSON     CLOUDY    43  34  70 SW13      29.76R
NEWTON         CLOUDY    37  32  81 SW18G29   29.77R WCI  27
PARSONS        CLOUDY    41  40  96 S15G22    29.84F FOG
WICHITA INTL   CLOUDY    39  35  86 SW15      29.77S WCI  31
WICHITA JABRA  CLOUDY    39  36  89 SW13G25   29.77R WCI  31
WICHITA MCCONL CLOUDY    39  36  87 S17G25    29.77R WCI  30
WINFIELD       CLOUDY    41  38  89 SW23G31   29.81R
$$

KSZ007>012-019>026-033>040-048>060-102>105-031600-
NORTHEAST KANSAS

CITY           SKY/WX    TMP DP  RH WIND       PRES   REMARKS
CONCORDIA      CLOUDY    38  32  79 NW15      29.73R WCI  29
EMPORIA        CLOUDY    41  38  89 SW22G33   29.73R
LAWRENCE       CLOUDY    41  37  86 SW16G24   29.73R
MANHATTAN      PTSUNNY   42  35  76 SW15G22   29.71R
OLATHE IND     CLOUDY    38  38 100 SW17      29.74R FOG     WCI  28
OLATHE EXE     CLOUDY    39  39 100 SW13G25   29.73R FOG     WCI  31
SALINA         CLOUDY    44  35  70 SW14      29.74R
TOPEKA BILLARD CLOUDY    44  37  76 SW17G24   29.73R
TOPEKA FORBES  CLOUDY    44  37  76 SW22G30   29.71R
$$



USA.gov is the U.S. government's official web portal to all federal, state and local government web resources and services.